Location: Sungai Igah
(2.7333°N, 114.2500°E)
Time: 03:59:48
(UTC+00:00)

GPS 2-15 Rocket1 - Pass Details

Date: 14 June 2021
Orbit: 623 x 675 km, 19.8° (Epoch: 02 August)

Event Time Altitude Azimuth Distance (km) Brightness Sun altitude
Exits shadow 21:50:40 - 255° (WSW) 2,318 5.3 -6.4°
Reaches altitude 10° 21:51:17 10° 256° (WSW) 2,091 5.1 -6.3°
Maximum altitude 21:56:12 70° 339° (NNW) 708 3.4 -5.2°
Drops below altitude 10° 22:01:04 10° 63° (ENE) 2,071 7.8 -4.0°
Sets 22:03:28 0° 65° (ENE) 2,975 10.0 -3.5°
